Location: Big Tree
(37.5099°N, 119.6021°W)
Time: 22:54:57
(UTC+00:00)

IRIDIUM 106 - Pass Details

Date: 05 August 2024
Orbit: 776 x 779 km, 86.4° (Epoch: 07 September)

Event Time Altitude Azimuth Distance (km) Brightness Sun altitude
Rises 12:06:56 0° 187° (S) 3,246 7.2 -11.4°
Reaches altitude 10° 12:09:17 10° 189° (S) 2,323 6.4 -11.0°
Maximum altitude 12:14:28 70° 273° (W) 829 4.3 -10.1°
Drops below altitude 10° 12:19:41 10° 357° (N) 2,338 7.2 -9.2°
Sets 12:22:04 0° 0° (N) 3,270 8.0 -8.8°
